This is the latest recevied weather packets stored in our database for station/object KY4EF. If no packets are shown the sender has not sent any weather packets the latest 1 day(s).
| Time | Temp. | Humidity | Pressure | Rain* | Wind** | Luminosity | Snow |
|---|---|---|---|---|---|---|---|
| 1778083727 | 16.11° C | 99% | 1012.9 hPa | 0 mm | - | 96 W/m² | - |
| 1778083123 | 16.11° C | 99% | 1014.3 hPa | 1.78 mm | - | 79 W/m² | - |
| 1778081696 | 16.11° C | 99% | 1015.3 hPa | 0 mm | - | 59 W/m² | - |
| 1778080789 | 15.56° C | 99% | 1014.8 hPa | 6.1 mm | - | 90 W/m² | - |
| 1778080486 | 15.56° C | 99% | 1015.2 hPa | 8.89 mm | - | 86 W/m² | - |
| 1778079879 | 15.56° C | 99% | 1014.9 hPa | 3.56 mm | - | 51 W/m² | - |
| 1778078062 | 15° C | 99% | 1013.9 hPa | 42.67 mm | - | 49 W/m² | - |
| 1778077760 | 15.56° C | 99% | 1014.1 hPa | 33.53 mm | - | 32 W/m² | - |
| 1778077458 | 15.56° C | 99% | 1014.4 hPa | 13.72 mm | - | 12 W/m² | - |
| 1778076248 | 15.56° C | 99% | 1013.1 hPa | 4.83 mm | - | 21 W/m² | - |
| 1778075945 | 15.56° C | 99% | 1012.9 hPa | 4.32 mm | - | 30 W/m² | - |
| 1778075642 | 15.56° C | 99% | 1013.1 hPa | 3.05 mm | - | 13 W/m² | - |
| 1778075338 | 15.56° C | 99% | 1013.1 hPa | 1.78 mm | - | 21 W/m² | - |
| 1778074428 | 16.11° C | 99% | 1012.7 hPa | 1.27 mm | - | 55 W/m² | - |
| 1778073822 | 16.11° C | 99% | 1012.7 hPa | 0 mm | - | 39 W/m² | - |
| 1778073216 | 16.11° C | 99% | 1012.5 hPa | 0 mm | - | 76 W/m² | - |
| 1778071704 | 15.56° C | 99% | 1012.9 hPa | 0 mm | - | 91 W/m² | - |
| 1778071098 | 15.56° C | 99% | 1013.3 hPa | 1.78 mm | - | 48 W/m² | - |
| 1778069888 | 15.56° C | 95% | 1012.9 hPa | 0 mm | - | 13 W/m² | - |
| 1778069585 | 15.56° C | 95% | 1012.8 hPa | 1.27 mm | - | 22 W/m² | - |
| 1778068980 | 16.11° C | 92% | 1012.7 hPa | 0 mm | - | 20 W/m² | - |
| 1778068376 | 16.11° C | 90% | 1012.8 hPa | 0 mm | - | 16 W/m² | - |
| 1778068073 | 16.67° C | 88% | 1012.6 hPa | 0 mm | - | 21 W/m² | - |
| 1778067469 | 17.22° C | 82% | 1012.3 hPa | 0 mm | - | 17 W/m² | - |
| 1778067166 | 17.22° C | 83% | 1012.2 hPa | 0 mm | - | 15 W/m² | - |
* Rain latest hour (hover to see other rain measurements)
** Current wind speed in m/s (hover to see current wind gust speed)